| time (UTC) | temp C | wind direction | speed KPH | gust KPH | rain 1hr cm | rain 24hr cm | rain mn cm | humidity % | barometer mb |
| 20260507203100 | 12 | 0.0 | 0.0 | 0.00 | 0.30 | 0.05 | 68 | 1012.1 | |
| 20260507201600 | 11 | 0.0 | 0.0 | 0.00 | 0.30 | 0.05 | 71 | 1012.4 | |
| 20260507200109 | 12 | 0.0 | 0.0 | 0.00 | 0.30 | 0.05 | 70 | 1012.7 | |
| 20260507194557 | 12 | 0.0 | 0.0 | 0.00 | 0.30 | 0.05 | 71 | 1012.4 | |
| 20260507193056 | 12 | 0.0 | 0.0 | 0.00 | 0.30 | 0.05 | 71 | 1012.6 | |
| 20260507191558 | 12 | 0.0 | 0.0 | 0.00 | 0.30 | 0.05 | 70 | 1012.7 | |
| 20260507190057 | 11 | 0.0 | 0.0 | 0.00 | 0.30 | 0.05 | 73 | 1012.9 | |
| 20260507184603 | 11 | 0.0 | 0.0 | 0.00 | 0.30 | 0.05 | 70 | 1012.9 | |
| 20260507183051 | 11 | 0.0 | 0.0 | 0.00 | 0.30 | 0.05 | 70 | 1013.1 | |
| 20260507181600 | 11 | 0.0 | 0.0 | 0.00 | 0.30 | 0.05 | 72 | 1012.8 | |
| 20260507180057 | 12 | 0.0 | 0.0 | 0.00 | 0.30 | 0.05 | 72 | 1013.1 | |
| 20260507174556 | 12 | 0.0 | 0.0 | 0.00 | 0.30 | 0.05 | 72 | 1013.0 | |
| 20260507173056 | 12 | 0.0 | 0.0 | 0.00 | 0.30 | 0.05 | 72 | 1013.0 | |
| 20260507171601 | 11 | 0.0 | 0.0 | 0.00 | 0.30 | 0.05 | 72 | 1012.9 | |
| 20260507170059 | 11 | 0.0 | 0.0 | 0.00 | 0.30 | 0.05 | 71 | 1013.2 | |
| 20260507164557 | 11 | 0.0 | 0.0 | 0.00 | 0.41 | 0.05 | 76 | 1013.2 | |
| 20260507163057 | 10 | 0.0 | 0.0 | 0.00 | 0.41 | 0.05 | 75 | 1013.4 | |
| 20260507161556 | 10 | 0.0 | 0.0 | 0.00 | 0.41 | 0.05 | 80 | 1013.4 | |
| 20260507160055 | 10 | 0.0 | 0.0 | 0.00 | 0.41 | 0.05 | 80 | 1013.4 | |
| 20260507154604 | 9 | 0.0 | 0.0 | 0.00 | 0.43 | 0.05 | 82 | 1013.6 | |
| 20260507153101 | 8 | 0.0 | 0.0 | 0.00 | 0.43 | 0.05 | 84 | 1013.7 | |
| 20260507151556 | 8 | 0.0 | 0.0 | 0.00 | 0.43 | 0.05 | 88 | 1013.6 | |
| 20260507150055 | 8 | 0.0 | 0.0 | 0.00 | 0.43 | 0.05 | 89 | 1013.6 | |
| 20260507144552 | 8 | 0.0 | 0.0 | 0.00 | 0.46 | 0.05 | 91 | 1013.6 | |
| 20260507143053 | 7 | 0.0 | 0.0 | 0.00 | 0.46 | 0.05 | 90 | 1013.8 | |
| 20260507141552 | 7 | 0.0 | 0.0 | 0.00 | 0.46 | 0.05 | 92 | 1013.7 | |
| 20260507140054 | 7 | 0.0 | 0.0 | 0.00 | 0.46 | 0.05 | 92 | 1013.7 | |
| 20260507134555 | 7 | 0.0 | 0.0 | 0.00 | 0.56 | 0.05 | 93 | 1013.6 | |
| 20260507133057 | 7 | 0.0 | 0.0 | 0.00 | 0.56 | 0.05 | 94 | 1013.6 | |
| 20260507131601 | 7 | 0.0 | 0.0 | 0.03 | 0.56 | 0.05 | 95 | 1013.7 | |
| 20260507130107 | 7 | 0.0 | 0.0 | 0.03 | 0.56 | 0.05 | 95 | 1013.8 | |
| 20260507124556 | 7 | 0.0 | 0.0 | 0.03 | 0.74 | 0.05 | 95 | 1013.8 | |
| 20260507123053 | 7 | 0.0 | 0.0 | 0.03 | 0.74 | 0.05 | 95 | 1013.6 | |
| 20260507121605 | 7 | 0.0 | 0.0 | 0.00 | 0.71 | 0.03 | 95 | 1013.9 | |
| 20260507114604 | 7 | 0.0 | 0.0 | 0.00 | 0.71 | 0.03 | 95 | 1013.4 | |
| 20260507113055 | 7 | 0.0 | 0.0 | 0.00 | 0.71 | 0.03 | 95 | 1013.3 | |
| 20260507111559 | 8 | 0.0 | 0.0 | 0.00 | 0.71 | 0.03 | 96 | 1013.1 | |
| 20260507110057 | 8 | 0.0 | 0.0 | 0.00 | 0.71 | 0.03 | 96 | 1012.9 | |
| 20260507104553 | 8 | 0.0 | 0.0 | 0.00 | 0.84 | 0.03 | 96 | 1012.4 | |
| 20260507103054 | 8 | 0.0 | 0.0 | 0.00 | 0.84 | 0.03 | 96 | 1012.7 | |
| 20260507101604 | 8 | 0.0 | 0.0 | 0.00 | 0.84 | 0.03 | 96 | 1012.5 | |
| 20260507100053 | 8 | 0.0 | 0.0 | 0.00 | 0.84 | 0.03 | 96 | 1012.8 | |
| 20260507094557 | 8 | 0.0 | 0.0 | 0.00 | 0.89 | 0.03 | 96 | 1012.6 | |
| 20260507093055 | 8 | 0.0 | 0.0 | 0.00 | 0.89 | 0.03 | 96 | 1012.6 | |
| 20260507091559 | 8 | 0.0 | 0.0 | 0.00 | 0.89 | 0.03 | 96 | 1013.0 | |
| 20260507090056 | 8 | 0.0 | 0.0 | 0.00 | 0.89 | 0.03 | 96 | 1012.8 | |
| 20260507084555 | 8 | 0.0 | 0.0 | 0.03 | 0.89 | 0.03 | 95 | 1012.8 | |
| 20260507083056 | 9 | 0.0 | 0.0 | 0.03 | 0.89 | 0.03 | 95 | 1012.8 | |
| 20260507081602 | 9 | 0.0 | 0.0 | 0.03 | 0.89 | 0.03 | 95 | 1012.6 | |
| 20260507080053 | 10 | 0.0 | 0.0 | 0.03 | 0.89 | 0.03 | 95 | 1012.5 | |
| 20260507074605 | 10 | 0.0 | 0.0 | 0.00 | 0.86 | 0.00 | 95 | 1012.8 | |
| 20260507073052 | 10 | 0.0 | 0.0 | 0.00 | 0.86 | 0.00 | 95 | 1012.7 | |
| 20260507071551 | 10 | 0.0 | 0.0 | 0.00 | 0.86 | 0.00 | 95 | 1012.8 | |
| 20260507070058 | 10 | 0.0 | 0.0 | 0.00 | 0.86 | 0.00 | 95 | 1013.1 | |
| 20260507064554 | 10 | 0.0 | 0.0 | 0.00 | 0.86 | 0.00 | 95 | 1013.1 | |
| 20260507063052 | 10 | 0.0 | 0.0 | 0.00 | 0.86 | 0.00 | 95 | 1013.1 | |
| 20260507061606 | 10 | 0.0 | 0.0 | 0.00 | 0.86 | 0.00 | 95 | 1013.6 | |
| 20260507060054 | 10 | 0.0 | 0.0 | 0.00 | 0.86 | 0.00 | 95 | 1013.2 | |
| 20260507054633 | 10 | 0.0 | 0.0 | 0.00 | 0.86 | 0.00 | 94 | 1012.8 | |
| 20260507053055 | 10 | 0.0 | 0.0 | 0.00 | 0.86 | 0.00 | 95 | 1013.2 | |
| 20260507051553 | 11 | 0.0 | 0.0 | 0.00 | 0.86 | 0.00 | 94 | 1013.3 | |
| 20260507050058 | 11 | 0.0 | 0.0 | 0.00 | 0.86 | 0.00 | 95 | 1012.8 | |
| 20260507044601 | 11 | 0.0 | 0.0 | 0.00 | 0.86 | 0.00 | 95 | 1013.8 | |
| 20260507043055 | 12 | 0.0 | 0.0 | 0.00 | 0.86 | 0.00 | 95 | 1013.6 | |
| 20260507041601 | 12 | 0.0 | 0.0 | 0.00 | 0.86 | 0.00 | 95 | 1013.2 | |
| 20260507040055 | 12 | 0.0 | 0.0 | 0.00 | 0.86 | 0.00 | 95 | 1012.4 | |
| 20260507034600 | 12 | 0.0 | 0.0 | 0.00 | 0.86 | 0.86 | 95 | 1012.4 | |
| 20260507033101 | 12 | 0.0 | 0.0 | 0.00 | 0.86 | 0.86 | 95 | 1012.5 | |
| 20260507031605 | 12 | 0.0 | 0.0 | 0.03 | 0.86 | 0.86 | 95 | 1013.0 | |
| 20260507030056 | 12 | 0.0 | 0.0 | 0.05 | 0.86 | 0.86 | 95 | 1013.5 | |
| 20260507024556 | 12 | 0.0 | 0.0 | 0.05 | 0.86 | 0.86 | 95 | 1014.3 | |
| 20260507023102 | 12 | 0.0 | 0.0 | 0.05 | 0.86 | 0.86 | 95 | 1014.4 | |
| 20260507021551 | 12 | 0.0 | 0.0 | 0.03 | 0.84 | 0.84 | 94 | 1014.1 | |
| 20260507020057 | 13 | 0.0 | 0.0 | 0.03 | 0.81 | 0.81 | 94 | 1014.2 | |
| 20260507014602 | 13 | 0.0 | 0.0 | 0.03 | 0.81 | 0.81 | 94 | 1014.0 | |
| 20260507013053 | 13 | 0.0 | 0.0 | 0.08 | 0.81 | 0.81 | 93 | 1014.0 | |
| 20260507011555 | 14 | 0.0 | 0.0 | 0.10 | 0.79 | 0.79 | 93 | 1013.7 | |
| 20260507010052 | 15 | 0.0 | 0.0 | 0.18 | 0.79 | 0.79 | 93 | 1012.3 | |
| 20260507004550 | 16 | 0.0 | 0.0 | 0.18 | 0.79 | 0.79 | 92 | 1012.0 | |
| 20260507003054 | 16 | 0.0 | 0.0 | 0.13 | 0.74 | 0.74 | 93 | 1011.7 | |
| 20260507001605 | 16 | 0.0 | 0.0 | 0.08 | 0.69 | 0.69 | 92 | 1012.5 | |
| 20260507000057 | 17 | 0.0 | 0.0 | 0.00 | 0.61 | 0.61 | 89 | 1012.3 | |
| 20260506234554 | 17 | 0.0 | 0.0 | 0.00 | 0.61 | 0.61 | 86 | 1012.6 | |
| 20260506233119 | 17 | 0.0 | 0.0 | 0.00 | 0.61 | 0.61 | 83 | 1011.9 | |
| 20260506231551 | 17 | 0.0 | 0.0 | 0.00 | 0.61 | 0.61 | 83 | 1011.7 | |
| 20260506230053 | 17 | 0.0 | 0.0 | 0.00 | 0.61 | 0.61 | 83 | 1011.8 | |
| 20260506224553 | 17 | 0.0 | 0.0 | 0.00 | 0.61 | 0.61 | 84 | 1012.4 | |
| 20260506223051 | 17 | 0.0 | 0.0 | 0.00 | 0.61 | 0.61 | 83 | 1012.2 | |
| 20260506221552 | 18 | 0.0 | 0.0 | 0.00 | 0.61 | 0.61 | 81 | 1012.6 | |
| 20260506220052 | 18 | 0.0 | 0.0 | 0.00 | 0.61 | 0.61 | 81 | 1012.4 | |
| 20260506214552 | 18 | 0.0 | 0.0 | 0.00 | 0.61 | 0.61 | 81 | 1012.3 | |
| 20260506213111 | 18 | 0.0 | 0.0 | 0.00 | 0.61 | 0.61 | 82 | 1012.2 | |
| 20260506211554 | 18 | 0.0 | 0.0 | 0.00 | 0.61 | 0.61 | 82 | 1011.9 | |
| 20260506210057 | 18 | 0.0 | 0.0 | 0.00 | 0.61 | 0.61 | 83 | 1012.1 | |
| 20260506204553 | 18 | 0.0 | 0.0 | 0.00 | 0.61 | 0.61 | 83 | 1011.8 |